BCS630 EKCH-EDDP

Flight info

Callsign BCS630
Flight time 0h 47m
Altitude 35000
Route SALLO M736 BAKDO DCT LEGSA/N0469F340 L23 TIMIB/N0455F290 M736 MAG/N0445F280 Z20 KENIG T959 KOJEC KOJEC1V
Aircraft A333/H-SDE3GHIJ2J3J5M1RVWXY/LB2D1

Departure

Time 2026-04-25 23:03
Airport Copenhagen Kastrup Airport (EKCH)

Arrival

Time 2026-04-25 23:50
Airport Leipzig/Halle Airport (EDDP)
Time Latitude Longitude Altitude Speed Heading
2026-04-25 22:38 55.61797 12.67168 28 ft 0 kts 79°
2026-04-25 22:50 55.61796 12.67154 26 ft 4 kts 81°
2026-04-25 22:50 55.61793 12.67106 27 ft 4 kts 89°
2026-04-25 22:50 55.61794 12.67059 28 ft 4 kts 101°
2026-04-25 22:50 55.61803 12.67015 28 ft 4 kts 126°
2026-04-25 22:51 55.61818 12.66991 28 ft 1 kts 169°
2026-04-25 22:51 55.61822 12.66990 28 ft 0 kts 169°
2026-04-25 22:54 55.61794 12.67000 28 ft 6 kts 169°
2026-04-25 22:55 55.61740 12.67019 28 ft 9 kts 169°
2026-04-25 22:55 55.61666 12.67045 28 ft 12 kts 169°
2026-04-25 22:55 55.61572 12.67076 28 ft 15 kts 169°
2026-04-25 22:55 55.61462 12.67113 28 ft 17 kts 169°
2026-04-25 22:56 55.61346 12.67117 28 ft 16 kts 195°
2026-04-25 22:56 55.61282 12.67001 29 ft 12 kts 275°
2026-04-25 22:56 55.61325 12.66864 28 ft 16 kts 303°
2026-04-25 22:56 55.61398 12.66667 28 ft 23 kts 303°
2026-04-25 22:57 55.61490 12.66419 27 ft 22 kts 302°
2026-04-25 22:57 55.61582 12.66172 29 ft 28 kts 303°
2026-04-25 22:57 55.61685 12.65894 30 ft 26 kts 303°
2026-04-25 22:57 55.61785 12.65625 28 ft 26 kts 303°
2026-04-25 22:58 55.61886 12.65353 28 ft 27 kts 303°
2026-04-25 22:58 55.61981 12.65093 26 ft 24 kts 302°
2026-04-25 22:58 55.61982 12.64922 27 ft 16 kts 224°
2026-04-25 22:58 55.61868 12.64785 27 ft 22 kts 213°
2026-04-25 22:59 55.61718 12.64612 27 ft 27 kts 213°
2026-04-25 22:59 55.61560 12.64430 28 ft 27 kts 213°
2026-04-25 22:59 55.61401 12.64247 27 ft 27 kts 213°
2026-04-25 22:59 55.61239 12.64062 27 ft 28 kts 213°
2026-04-25 23:00 55.61076 12.63873 27 ft 28 kts 213°
2026-04-25 23:00 55.60911 12.63684 27 ft 28 kts 213°
2026-04-25 23:00 55.60744 12.63493 27 ft 29 kts 213°
2026-04-25 23:00 55.60585 12.63281 27 ft 26 kts 221°
2026-04-25 23:01 55.60459 12.63120 28 ft 16 kts 188°
2026-04-25 23:01 55.60394 12.63179 28 ft 10 kts 136°
2026-04-25 23:01 55.60345 12.63282 29 ft 11 kts 128°
2026-04-25 23:01 55.60347 12.63350 30 ft 5 kts 53°
2026-04-25 23:02 55.60367 12.63386 30 ft 1 kts 43°
2026-04-25 23:02 55.60495 12.63587 28 ft 57 kts 40°
2026-04-25 23:02 55.60963 12.64311 28 ft 120 kts 41°
2026-04-25 23:02 55.61739 12.65509 55 ft 173 kts 39°
2026-04-25 23:03 55.62624 12.66968 846 ft 169 kts 41°
2026-04-25 23:03 55.63453 12.68341 1932 ft 163 kts 38°
2026-04-25 23:03 55.64342 12.69747 2500 ft 182 kts 38°
2026-04-25 23:03 55.65364 12.71297 2877 ft 205 kts 38°
2026-04-25 23:04 55.66510 12.73024 3244 ft 226 kts 38°
2026-04-25 23:04 55.67319 12.74247 3609 ft 234 kts 38°
2026-04-25 23:04 55.68976 12.76857 4638 ft 243 kts 44°
2026-04-25 23:04 55.69932 12.79392 5465 ft 256 kts 64°
2026-04-25 23:05 55.70452 12.82477 6250 ft 268 kts 77°
2026-04-25 23:05 55.70419 12.85844 7051 ft 283 kts 101°
2026-04-25 23:05 55.69465 12.88951 7861 ft 298 kts 135°
2026-04-25 23:05 55.67683 12.90890 8663 ft 307 kts 159°
2026-04-25 23:06 55.65650 12.92210 9458 ft 313 kts 163°
2026-04-25 23:06 55.63566 12.93453 10227 ft 319 kts 164°
2026-04-25 23:06 55.61397 12.94760 10576 ft 340 kts 163°
2026-04-25 23:06 55.59111 12.96162 10840 ft 362 kts 163°
2026-04-25 23:07 55.56672 12.97677 11113 ft 382 kts 162°
2026-04-25 23:07 55.54105 12.99288 11468 ft 399 kts 162°
2026-04-25 23:07 55.51451 13.00968 12012 ft 410 kts 162°
2026-04-25 23:07 55.48744 13.02703 12566 ft 419 kts 160°
2026-04-25 23:08 55.45985 13.04542 13162 ft 428 kts 159°
2026-04-25 23:08 55.43171 13.06399 13746 ft 437 kts 160°
2026-04-25 23:08 55.40282 13.08271 14303 ft 445 kts 160°
2026-04-25 23:08 55.37353 13.10144 14873 ft 451 kts 160°
2026-04-25 23:09 55.34374 13.12033 15440 ft 458 kts 161°
2026-04-25 23:09 55.31399 13.13911 16019 ft 464 kts 161°
2026-04-25 23:09 55.28339 13.15835 16566 ft 470 kts 161°
2026-04-25 23:09 55.25238 13.17780 17135 ft 477 kts 161°
2026-04-25 23:10 55.22089 13.19751 17657 ft 483 kts 161°
2026-04-25 23:10 55.18901 13.21742 18211 ft 489 kts 161°
2026-04-25 23:10 55.15681 13.23749 18689 ft 495 kts 161°
2026-04-25 23:10 55.12419 13.25779 19184 ft 499 kts 161°
2026-04-25 23:11 55.09126 13.27825 19714 ft 505 kts 161°
2026-04-25 23:11 55.05795 13.29891 20127 ft 512 kts 161°
2026-04-25 23:11 55.02422 13.31980 20592 ft 515 kts 161°
2026-04-25 23:11 54.99032 13.34075 21076 ft 519 kts 161°
2026-04-25 23:12 54.95599 13.36087 21519 ft 523 kts 166°
2026-04-25 23:12 54.92022 13.37161 21959 ft 521 kts 182°
2026-04-25 23:12 54.88492 13.36734 22392 ft 511 kts 199°
2026-04-25 23:12 54.85025 13.35334 22833 ft 510 kts 204°
2026-04-25 23:13 54.81623 13.33578 23262 ft 511 kts 207°
2026-04-25 23:13 54.78243 13.31645 23616 ft 513 kts 208°
2026-04-25 23:13 54.74872 13.29670 24217 ft 510 kts 208°
2026-04-25 23:13 54.71502 13.27715 24640 ft 513 kts 208°
2026-04-25 23:14 54.68096 13.25773 24988 ft 517 kts 207°
2026-04-25 23:14 54.64663 13.23857 25355 ft 521 kts 207°
2026-04-25 23:14 54.61185 13.21948 25742 ft 524 kts 206°
2026-04-25 23:14 54.57695 13.20054 26114 ft 528 kts 206°
2026-04-25 23:15 54.54180 13.18160 26439 ft 530 kts 206°
2026-04-25 23:15 54.50706 13.16297 26979 ft 529 kts 206°
2026-04-25 23:15 54.47184 13.14411 27382 ft 531 kts 206°
2026-04-25 23:15 54.43634 13.12547 27726 ft 536 kts 205°
2026-04-25 23:16 54.40039 13.10722 28072 ft 540 kts 205°
2026-04-25 23:16 54.36423 13.08922 28428 ft 543 kts 204°
2026-04-25 23:16 54.32772 13.07119 28788 ft 546 kts 204°
2026-04-25 23:16 54.29106 13.05312 29094 ft 548 kts 204°
2026-04-25 23:17 54.25441 13.03508 29609 ft 547 kts 204°
2026-04-25 23:17 54.21823 13.01725 29984 ft 550 kts 204°
2026-04-25 23:17 54.18140 12.99905 30271 ft 553 kts 204°
2026-04-25 23:17 54.14440 12.98076 30589 ft 555 kts 204°
2026-04-25 23:18 54.10729 12.96246 31004 ft 554 kts 204°
2026-04-25 23:18 54.07027 12.94430 31544 ft 550 kts 204°
2026-04-25 23:18 54.03368 12.92641 32097 ft 543 kts 204°
2026-04-25 23:18 53.99758 12.90884 32869 ft 535 kts 204°
2026-04-25 23:19 53.96199 12.89149 33396 ft 531 kts 205°
2026-04-25 23:19 53.92647 12.87410 33802 ft 530 kts 205°
2026-04-25 23:19 53.89107 12.85676 34176 ft 529 kts 205°
2026-04-25 23:19 53.85625 12.83754 34508 ft 521 kts 211°
2026-04-25 23:20 53.82440 12.81181 34821 ft 507 kts 220°
2026-04-25 23:20 53.79564 12.77860 34999 ft 494 kts 230°
2026-04-25 23:20 53.77116 12.73945 35069 ft 479 kts 237°
2026-04-25 23:20 53.74690 12.70024 35059 ft 486 kts 230°
2026-04-25 23:21 53.71953 12.66578 35055 ft 497 kts 221°
2026-04-25 23:21 53.68845 12.63838 35061 ft 512 kts 210°
2026-04-25 23:21 53.61981 12.60112 35070 ft 513 kts 210°
2026-04-25 23:22 53.55353 12.55653 35062 ft 512 kts 211°
2026-04-25 23:23 53.45569 12.48728 35079 ft 510 kts 212°
2026-04-25 23:23 53.39042 12.44064 35077 ft 510 kts 211°
2026-04-25 23:24 53.32511 12.39427 35074 ft 509 kts 210°
2026-04-25 23:24 53.25998 12.34824 35091 ft 507 kts 210°
2026-04-25 23:25 53.19504 12.30249 35095 ft 507 kts 210°
2026-04-25 23:25 53.12994 12.25678 35094 ft 507 kts 210°
2026-04-25 23:26 53.06486 12.21126 35099 ft 507 kts 210°
2026-04-25 23:26 52.99986 12.16596 35099 ft 506 kts 210°
2026-04-25 23:27 52.93509 12.12010 35100 ft 504 kts 211°
2026-04-25 23:27 52.87193 12.07011 35107 ft 502 kts 213°
2026-04-25 23:28 52.80955 12.01929 35110 ft 503 kts 213°
2026-04-25 23:28 52.74483 11.97350 35116 ft 507 kts 208°
2026-04-25 23:29 52.67882 11.93181 35116 ft 509 kts 207°
2026-04-25 23:29 52.60998 11.90180 35116 ft 517 kts 193°
2026-04-25 23:30 52.53843 11.88693 35127 ft 518 kts 191°
2026-04-25 23:30 52.47872 11.87692 34692 ft 520 kts 190°
2026-04-25 23:30 52.44242 11.87095 33728 ft 528 kts 190°
2026-04-25 23:31 52.40562 11.86480 32524 ft 537 kts 190°
2026-04-25 23:31 52.36817 11.85845 31498 ft 542 kts 190°
2026-04-25 23:31 52.33046 11.85199 30661 ft 543 kts 191°
2026-04-25 23:31 52.29271 11.84550 29589 ft 547 kts 191°
2026-04-25 23:32 52.25508 11.83903 29085 ft 538 kts 191°
2026-04-25 23:32 52.21797 11.83267 28274 ft 535 kts 191°
2026-04-25 23:32 52.18121 11.82637 27722 ft 524 kts 191°
2026-04-25 23:32 52.14595 11.82039 26775 ft 509 kts 191°
2026-04-25 23:33 52.11113 11.81526 25983 ft 495 kts 186°
2026-04-25 23:33 52.07729 11.81731 25514 ft 479 kts 176°
2026-04-25 23:33 52.04524 11.82847 25132 ft 463 kts 164°
2026-04-25 23:33 52.01619 11.84880 24797 ft 448 kts 151°
2026-04-25 23:34 51.99130 11.87779 24419 ft 433 kts 137°
2026-04-25 23:34 51.96977 11.91106 23872 ft 423 kts 134°
2026-04-25 23:34 51.94916 11.94480 23086 ft 420 kts 133°
2026-04-25 23:34 51.92875 11.97848 22296 ft 417 kts 133°
2026-04-25 23:35 51.90849 12.01182 21499 ft 413 kts 133°
2026-04-25 23:35 51.88875 12.04422 20951 ft 404 kts 134°
2026-04-25 23:35 51.86907 12.07642 20229 ft 400 kts 134°
2026-04-25 23:35 51.84952 12.10833 19498 ft 398 kts 134°
2026-04-25 23:36 51.83010 12.13998 18826 ft 395 kts 134°
2026-04-25 23:36 51.81079 12.17139 18100 ft 391 kts 134°
2026-04-25 23:36 51.79172 12.20237 17410 ft 386 kts 134°
2026-04-25 23:36 51.77290 12.23290 16711 ft 383 kts 134°
2026-04-25 23:37 51.75407 12.26339 15945 ft 381 kts 134°
2026-04-25 23:37 51.73551 12.29342 15316 ft 376 kts 134°
2026-04-25 23:37 51.71712 12.32313 14654 ft 371 kts 134°
2026-04-25 23:37 51.69899 12.35239 14038 ft 366 kts 134°
2026-04-25 23:38 51.68105 12.38130 13325 ft 362 kts 134°
2026-04-25 23:38 51.66335 12.40979 12632 ft 358 kts 134°
2026-04-25 23:38 51.64579 12.43803 11954 ft 354 kts 135°
2026-04-25 23:38 51.62846 12.46587 11296 ft 350 kts 135°
2026-04-25 23:39 51.61130 12.49340 10665 ft 345 kts 135°
2026-04-25 23:39 51.59449 12.52034 10091 ft 338 kts 135°
2026-04-25 23:39 51.57796 12.54708 9361 ft 336 kts 132°
2026-04-25 23:39 51.56620 12.57860 8682 ft 327 kts 103°
2026-04-25 23:40 51.56412 12.61395 7999 ft 314 kts 81°
2026-04-25 23:40 51.56589 12.64867 7314 ft 311 kts 78°
2026-04-25 23:40 51.56800 12.68303 6684 ft 307 kts 79°
2026-04-25 23:40 51.56987 12.71661 6096 ft 303 kts 79°
2026-04-25 23:41 51.57149 12.74997 5503 ft 297 kts 82°
2026-04-25 23:41 51.56882 12.78271 4969 ft 299 kts 107°
2026-04-25 23:41 51.55792 12.81088 4374 ft 297 kts 135°
2026-04-25 23:41 51.54084 12.82869 3917 ft 292 kts 162°
2026-04-25 23:42 51.52112 12.83274 3595 ft 281 kts 191°
2026-04-25 23:42 51.50322 12.82303 3250 ft 267 kts 219°
2026-04-25 23:42 51.48948 12.80399 3000 ft 258 kts 232°
2026-04-25 23:42 51.47732 12.78281 2961 ft 258 kts 234°
2026-04-25 23:43 51.46535 12.76136 2972 ft 257 kts 234°
2026-04-25 23:43 51.45371 12.74074 2966 ft 243 kts 234°
2026-04-25 23:43 51.44268 12.72120 2961 ft 226 kts 240°
2026-04-25 23:43 51.43639 12.70016 2970 ft 202 kts 262°
2026-04-25 23:44 51.43407 12.67869 2972 ft 192 kts 270°
2026-04-25 23:44 51.43300 12.65772 2991 ft 183 kts 272°
2026-04-25 23:44 51.43209 12.63817 2985 ft 171 kts 273°
2026-04-25 23:44 51.43118 12.61930 2978 ft 169 kts 273°
2026-04-25 23:45 51.43025 12.60050 2981 ft 169 kts 273°
2026-04-25 23:45 51.42933 12.58178 2986 ft 168 kts 273°
2026-04-25 23:45 51.42841 12.56307 2983 ft 168 kts 273°
2026-04-25 23:45 51.42752 12.54434 2981 ft 169 kts 273°
2026-04-25 23:46 51.42665 12.52553 2986 ft 169 kts 274°
2026-04-25 23:46 51.42579 12.50690 2989 ft 170 kts 274°
2026-04-25 23:46 51.42492 12.48803 2989 ft 170 kts 273°
2026-04-25 23:46 51.42403 12.46918 2988 ft 169 kts 274°
2026-04-25 23:47 51.42315 12.45038 2970 ft 170 kts 273°
2026-04-25 23:47 51.42226 12.43159 2777 ft 168 kts 273°
2026-04-25 23:47 51.42138 12.41311 2523 ft 164 kts 274°
2026-04-25 23:47 51.42054 12.39532 2299 ft 155 kts 274°
2026-04-25 23:48 51.41975 12.37856 2085 ft 148 kts 274°
2026-04-25 23:48 51.41900 12.36263 1869 ft 138 kts 274°
2026-04-25 23:48 51.41830 12.34770 1699 ft 130 kts 274°
2026-04-25 23:48 51.41765 12.33373 1507 ft 125 kts 274°
2026-04-25 23:49 51.41701 12.31988 1343 ft 124 kts 273°
2026-04-25 23:49 51.41635 12.30603 1124 ft 124 kts 270°
2026-04-25 23:49 51.41556 12.29226 951 ft 124 kts 271°
2026-04-25 23:49 51.41490 12.27866 775 ft 122 kts 272°
2026-04-25 23:50 51.41429 12.26493 635 ft 124 kts 272°
2026-04-25 23:50 51.41370 12.25120 482 ft 121 kts 271°
2026-04-25 23:50 51.41326 12.23960 469 ft 79 kts 265°
2026-04-25 23:50 51.41295 12.23346 468 ft 43 kts 265°
2026-04-25 23:51 51.41274 12.22901 465 ft 38 kts 259°
2026-04-25 23:51 51.41188 12.22574 461 ft 19 kts 235°
2026-04-25 23:51 51.41106 12.22563 460 ft 11 kts 141°
2026-04-25 23:51 51.41094 12.22671 462 ft 10 kts 89°
2026-04-25 23:52 51.41098 12.22785 464 ft 10 kts 86°
2026-04-25 23:52 51.41103 12.22896 465 ft 10 kts 86°
2026-04-25 23:52 51.41109 12.23001 469 ft 10 kts 86°
2026-04-25 23:52 51.41113 12.23113 470 ft 11 kts 86°
2026-04-25 23:53 51.41119 12.23238 466 ft 12 kts 86°
2026-04-25 23:53 51.41124 12.23355 473 ft 4 kts 85°
2026-04-25 23:53 51.41124 12.23356 473 ft 0 kts 85°
2026-04-25 23:53 51.41123 12.23359 473 ft 1 kts 96°
2026-04-25 23:54 51.41122 12.23365 467 ft 1 kts 101°
2026-04-25 23:54 51.41128 12.23438 474 ft 11 kts 83°
2026-04-25 23:54 51.41136 12.23587 469 ft 16 kts 85°
2026-04-25 23:54 51.41144 12.23779 467 ft 18 kts 85°
2026-04-25 23:55 51.41154 12.23988 470 ft 20 kts 85°
2026-04-25 23:55 51.41165 12.24222 469 ft 19 kts 84°
2026-04-25 23:55 51.41173 12.24371 466 ft 12 kts 87°
2026-04-25 23:55 51.41176 12.24464 467 ft 5 kts 86°
2026-04-25 23:56 51.41175 12.24532 467 ft 7 kts 104°
2026-04-25 23:56 51.41118 12.24582 467 ft 12 kts 168°
2026-04-25 23:56 51.41029 12.24606 467 ft 11 kts 177°
2026-04-25 23:56 51.40970 12.24611 470 ft 10 kts 175°
2026-04-25 23:57 51.40888 12.24621 468 ft 14 kts 175°
2026-04-25 23:57 51.40850 12.24626 468 ft 4 kts 175°
2026-04-25 23:57 51.40808 12.24632 467 ft 8 kts 175°
2026-04-25 23:57 51.40773 12.24593 467 ft 7 kts 246°
2026-04-25 23:58 51.40767 12.24547 466 ft 4 kts 263°
2026-04-25 23:58 51.40765 12.24516 467 ft 3 kts 264°
2026-04-25 23:58 51.40765 12.24514 467 ft 0 kts 264°